Погода в Бору

Россия / Костромская область     58°16′05″N   43°22′20″E
темп.,
°C
ветер,
м/с
пор.,
м/с
влажн.,
%
обл.,
%
осадки,
мм/ч
давл.,
гПа
погр.,
м
25 июня, сб
сб2500:00+16ссз25765 0.0 101583
03:00+14сз25830 0.0 101688
06:00+18ссз38740 0.0 1016241
09:00+24сз48500 0.0 10161409
12:00+26ссз5104255 0.0 10162432
15:00+23сз3759100 0.0 1016532
18:00+24сз486134 0.1 10171057
21:00+18ссз37840 0.1 1018131
26 июня, вс
вс2600:00+15ссв247982 0.0 101967
03:00+12св227141 0.0 102116
06:00+16ссв23620 0.0 1022168
09:00+21ссв24415 0.0 1022880
12:00+24с243528 0.0 10211458
15:00+26сз35383 0.0 10201791
18:00+23зсз116411 0.0 101922
21:00+20зюз227256 0.0 101834
27 июня, пн
пн2700:00+19зсз388629 0.4 1017197
03:00+17з412943 1.3 1016259
06:00+19зсз310894 0.0 1015313
09:00+24ссз58595 0.0 1016892
12:00+26с694843 0.0 10161960
15:00+24с58365 0.0 10181643
18:00+20с574573 0.0 10191127
21:00+14с310685 0.0 1020304
28 июня, вт
вт2800:00+10с310760 0.0 1022225
03:00+9ссв310790 0.0 1024328
06:00+10ссв48600 0.0 1025592
09:00+13ссв46451 0.0 10251140
12:00+17с46363 0.0 10241591
15:00+19с56335 0.0 10241864
18:00+18с46400 0.0 10231771
21:00+11с26630 0.0 102598
29 июня, ср
ср2900:00+9с25700 0.0 102576
03:00+7с267417 0.0 1026102
06:00+11с36610 0.0 1026218
09:00+17с35360 0.0 10261271
12:00+20с34295 0.0 10251692
15:00+22ссз352818 0.0 10241734
18:00+20ссз3640100 0.0 10231496
21:00+14зсз37675 0.0 1022106